パンスターズ彗星

C/2017 T2 ( PanSTARRS )

English version
Home page
Updated on February 13, 2018

---------------------------------------------------------------------

・ プロフィール

発見日 2017年10月2日
発見光度 19.9等
発見者 Pan-STARRS 1 telescope (Haleakala)

・ 写真集

・ 軌道要素

Epoch 2020 Apr. 21.0 TT = JDT 2458960.5
T 2020 May 5.03009 TT                                   MPCW
q   1.6150709            (2000.0)            P               Q
z  +0.0002665      Peri.   93.00044     -0.50995202     -0.40633797
 +/-0.0000201      Node    64.37535     -0.16287509     -0.81984295
e   0.9995695      Incl.   57.23368     +0.84464232     -0.40341912
From 131 observations 2017 Sept. 15-2018 Jan. 20, mean residual 0".3.

・ 星図

・ 光度変化

        m1 = 5.0 + 5 logΔ + 10.0 log r

---------------------------------------------------------------------

軌道要素はM.P.E.C. 2018-B155に掲載されたものです。
星図はステラナビゲータ Ver.10 (アストロアーツ) で作成したものです。
光度グラフはComet for Windowsで作成したものです。

---------------------------------------------------------------------

Copyright(C) Seiichi Yoshida (comet@aerith.net). All rights reserved.